LZB442 EDDM-LBSF

Flight info

Callsign LZB442
Flight time 1h 26m
Altitude 37000
Route ROTAX4Q ROTAX L603 LATLO DCT OBEDI DCT VAMET DCT RASIN DCT TUVAR DCT TPL DCT NISVA
Aircraft A320/M-SDE3FGHIRWY/LB1

Departure

Time 2026-05-04 11:42
Airport Munich Airport (EDDM)

Arrival

Time 2026-05-04 13:09
Airport Sofia Airport (LBSF)
Time Latitude Longitude Altitude Speed Heading
2026-05-04 11:14 48.35689 11.79263 1487 ft 0 kts 263°
2026-05-04 11:28 48.35689 11.79272 1482 ft 2 kts 263°
2026-05-04 11:28 48.35691 11.79298 1487 ft 2 kts 263°
2026-05-04 11:28 48.35695 11.79324 1478 ft 2 kts 247°
2026-05-04 11:28 48.35701 11.79348 1471 ft 2 kts 247°
2026-05-04 11:29 48.35708 11.79372 1471 ft 3 kts 241°
2026-05-04 11:29 48.35720 11.79393 1473 ft 3 kts 204°
2026-05-04 11:29 48.35736 11.79401 1477 ft 3 kts 185°
2026-05-04 11:29 48.35754 11.79401 1482 ft 2 kts 172°
2026-05-04 11:31 48.35755 11.79401 1482 ft 0 kts 172°
2026-05-04 11:33 48.35628 11.79424 1482 ft 9 kts 173°
2026-05-04 11:33 48.35566 11.79434 1480 ft 11 kts 173°
2026-05-04 11:33 48.35494 11.79447 1481 ft 10 kts 173°
2026-05-04 11:34 48.35378 11.79468 1478 ft 20 kts 173°
2026-05-04 11:34 48.35237 11.79491 1479 ft 20 kts 173°
2026-05-04 11:34 48.35094 11.79517 1485 ft 20 kts 173°
2026-05-04 11:34 48.34989 11.79535 1478 ft 13 kts 173°
2026-05-04 11:35 48.34906 11.79550 1473 ft 11 kts 173°
2026-05-04 11:35 48.34830 11.79560 1485 ft 12 kts 180°
2026-05-04 11:35 48.34786 11.79481 1481 ft 10 kts 262°
2026-05-04 11:35 48.34774 11.79335 1478 ft 22 kts 263°
2026-05-04 11:36 48.34756 11.79100 1485 ft 23 kts 263°
2026-05-04 11:36 48.34743 11.78938 1485 ft 23 kts 263°
2026-05-04 11:36 48.34718 11.78608 1480 ft 24 kts 263°
2026-05-04 11:36 48.34705 11.78437 1485 ft 25 kts 263°
2026-05-04 11:37 48.34685 11.78170 1482 ft 26 kts 263°
2026-05-04 11:37 48.34663 11.77897 1481 ft 27 kts 263°
2026-05-04 11:37 48.34641 11.77615 1485 ft 28 kts 263°
2026-05-04 11:37 48.34612 11.77229 1479 ft 29 kts 263°
2026-05-04 11:38 48.34596 11.77026 1482 ft 29 kts 263°
2026-05-04 11:38 48.34573 11.76720 1485 ft 30 kts 263°
2026-05-04 11:38 48.34549 11.76407 1476 ft 30 kts 264°
2026-05-04 11:38 48.34525 11.76088 1485 ft 31 kts 263°
2026-05-04 11:39 48.34500 11.75773 1485 ft 28 kts 263°
2026-05-04 11:39 48.34479 11.75491 1482 ft 25 kts 263°
2026-05-04 11:40 48.34192 11.75256 1483 ft 14 kts 173°
2026-05-04 11:41 48.34102 11.75272 1479 ft 9 kts 173°
2026-05-04 11:41 48.34085 11.75324 1485 ft 6 kts 82°
2026-05-04 11:41 48.34099 11.75503 1485 ft 45 kts 83°
2026-05-04 11:41 48.34162 11.76321 1486 ft 109 kts 83°
2026-05-04 11:42 48.34270 11.77722 1487 ft 158 kts 84°
2026-05-04 11:42 48.34401 11.79431 1860 ft 168 kts 81°
2026-05-04 11:42 48.34556 11.81186 2431 ft 175 kts 81°
2026-05-04 11:42 48.34713 11.83040 3064 ft 181 kts 84°
2026-05-04 11:43 48.34831 11.84794 3689 ft 154 kts 83°
2026-05-04 11:43 48.34944 11.86363 3981 ft 155 kts 81°
2026-05-04 11:43 48.35056 11.88049 4541 ft 171 kts 84°
2026-05-04 11:43 48.35183 11.89961 5220 ft 196 kts 84°
2026-05-04 11:44 48.35330 11.92131 5898 ft 221 kts 90°
2026-05-04 11:44 48.35063 11.94512 6559 ft 244 kts 113°
2026-05-04 11:44 48.34347 11.97022 7097 ft 278 kts 115°
2026-05-04 11:44 48.33552 11.99707 8228 ft 283 kts 116°
2026-05-04 11:45 48.32741 12.02423 9450 ft 288 kts 116°
2026-05-04 11:45 48.31913 12.05209 10563 ft 294 kts 116°
2026-05-04 11:45 48.30984 12.07953 11611 ft 297 kts 127°
2026-05-04 11:45 48.29637 12.10315 12648 ft 299 kts 141°
2026-05-04 11:46 48.27872 12.12140 13206 ft 319 kts 157°
2026-05-04 11:46 48.25765 12.13535 13649 ft 343 kts 159°
2026-05-04 11:46 48.23545 12.14971 14166 ft 360 kts 159°
2026-05-04 11:46 48.21224 12.16486 14927 ft 367 kts 159°
2026-05-04 11:47 48.18860 12.18043 15768 ft 373 kts 159°
2026-05-04 11:47 48.16474 12.19626 16562 ft 378 kts 158°
2026-05-04 11:47 48.14051 12.21273 17328 ft 385 kts 155°
2026-05-04 11:47 48.11765 12.23434 18058 ft 392 kts 147°
2026-05-04 11:48 48.09537 12.25831 18708 ft 397 kts 147°
2026-05-04 11:48 48.07284 12.28246 19336 ft 401 kts 147°
2026-05-04 11:48 48.05000 12.30685 19971 ft 404 kts 147°
2026-05-04 11:48 48.02703 12.33129 20553 ft 408 kts 146°
2026-05-04 11:49 48.00383 12.35598 21114 ft 411 kts 147°
2026-05-04 11:49 47.98053 12.38104 21625 ft 415 kts 144°
2026-05-04 11:49 47.95888 12.40980 22121 ft 420 kts 139°
2026-05-04 11:49 47.93745 12.43981 22608 ft 422 kts 139°
2026-05-04 11:50 47.91599 12.46984 23057 ft 425 kts 139°
2026-05-04 11:50 47.89433 12.50012 23492 ft 428 kts 139°
2026-05-04 11:50 47.87263 12.53045 23837 ft 430 kts 139°
2026-05-04 11:50 47.85063 12.56106 24167 ft 433 kts 139°
2026-05-04 11:51 47.82853 12.59173 24509 ft 435 kts 139°
2026-05-04 11:51 47.80644 12.62273 24849 ft 438 kts 137°
2026-05-04 11:51 47.78490 12.65418 25173 ft 441 kts 137°
2026-05-04 11:51 47.76325 12.68663 25495 ft 443 kts 136°
2026-05-04 11:52 47.74164 12.71944 25807 ft 446 kts 136°
2026-05-04 11:52 47.71993 12.75240 26128 ft 448 kts 136°
2026-05-04 11:52 47.69802 12.78547 26436 ft 450 kts 136°
2026-05-04 11:52 47.67599 12.81850 26758 ft 452 kts 136°
2026-05-04 11:53 47.65371 12.85168 27003 ft 454 kts 136°
2026-05-04 11:53 47.63127 12.88486 27293 ft 456 kts 136°
2026-05-04 11:53 47.60873 12.91805 27566 ft 459 kts 136°
2026-05-04 11:53 47.58600 12.95151 27835 ft 461 kts 136°
2026-05-04 11:55 47.42498 13.18805 29710 ft 468 kts 136°
2026-05-04 11:55 47.40183 13.22191 30053 ft 467 kts 136°
2026-05-04 11:56 47.37873 13.25564 30355 ft 467 kts 136°
2026-05-04 11:56 47.35579 13.28932 30641 ft 466 kts 134°
2026-05-04 11:56 47.33518 13.32630 30916 ft 467 kts 126°
2026-05-04 11:57 47.30563 13.41241 31019 ft 477 kts 112°
2026-05-04 11:57 47.28106 13.50413 31019 ft 485 kts 112°
2026-05-04 11:58 47.25586 13.59677 31027 ft 489 kts 112°
2026-05-04 11:58 47.23036 13.69003 31039 ft 493 kts 112°
2026-05-04 11:59 47.20472 13.78371 31033 ft 495 kts 112°
2026-05-04 11:59 47.17889 13.87779 31035 ft 497 kts 112°
2026-05-04 12:00 47.15311 13.97160 31045 ft 499 kts 112°
2026-05-04 12:00 47.14006 14.01890 31592 ft 486 kts 112°
2026-05-04 12:00 47.12765 14.06373 32217 ft 476 kts 113°
2026-05-04 12:00 47.11527 14.10844 32634 ft 471 kts 113°
2026-05-04 12:01 47.10277 14.15345 32980 ft 469 kts 113°
2026-05-04 12:01 47.09058 14.19723 33265 ft 468 kts 113°
2026-05-04 12:02 47.01651 14.46123 34792 ft 465 kts 113°
2026-05-04 12:03 47.00420 14.50492 34978 ft 465 kts 113°
2026-05-04 12:03 46.99181 14.54893 35041 ft 468 kts 113°
2026-05-04 12:03 46.96672 14.63781 35048 ft 476 kts 113°
2026-05-04 12:04 46.94110 14.72792 35052 ft 482 kts 113°
2026-05-04 12:04 46.91537 14.81778 35055 ft 470 kts 113°
2026-05-04 12:05 46.89032 14.90529 35054 ft 464 kts 113°
2026-05-04 12:05 46.86556 14.99147 35057 ft 464 kts 113°
2026-05-04 12:06 46.84047 15.07843 35055 ft 464 kts 113°
2026-05-04 12:06 46.81536 15.16525 35054 ft 464 kts 113°
2026-05-04 12:07 46.79014 15.25204 35051 ft 464 kts 113°
2026-05-04 12:07 46.76052 15.33523 35052 ft 463 kts 126°
2026-05-04 12:08 46.72296 15.41181 35048 ft 464 kts 126°
2026-05-04 12:08 46.68544 15.48828 35041 ft 464 kts 126°
2026-05-04 12:09 46.64795 15.56471 35038 ft 464 kts 126°
2026-05-04 12:09 46.61026 15.64113 35034 ft 464 kts 126°
2026-05-04 12:10 46.57244 15.71748 35031 ft 464 kts 126°
2026-05-04 12:10 46.53474 15.79359 35031 ft 464 kts 126°
2026-05-04 12:11 46.49696 15.86970 35036 ft 465 kts 126°
2026-05-04 12:11 46.45911 15.94572 35036 ft 464 kts 126°
2026-05-04 12:12 46.42155 16.02099 35046 ft 465 kts 126°
2026-05-04 12:12 46.38357 16.09691 35054 ft 465 kts 126°
2026-05-04 12:14 46.23118 16.39884 35070 ft 465 kts 126°
2026-05-04 12:15 46.19286 16.47415 35069 ft 465 kts 126°
2026-05-04 12:15 46.15453 16.54938 35077 ft 465 kts 126°
2026-05-04 12:16 46.11624 16.62440 35079 ft 465 kts 126°
2026-05-04 12:16 46.08021 16.70151 35081 ft 463 kts 118°
2026-05-04 12:17 46.04908 16.78274 35080 ft 463 kts 118°
2026-05-04 12:17 46.01791 16.86334 35084 ft 463 kts 118°
2026-05-04 12:18 45.98626 16.94484 35086 ft 463 kts 118°
2026-05-04 12:18 45.95489 17.02569 35086 ft 463 kts 118°
2026-05-04 12:19 45.92382 17.10563 35085 ft 463 kts 118°
2026-05-04 12:19 45.89228 17.18646 35088 ft 463 kts 118°
2026-05-04 12:20 45.86072 17.26684 35090 ft 462 kts 118°
2026-05-04 12:20 45.82917 17.34706 35095 ft 462 kts 118°
2026-05-04 12:21 45.79764 17.42721 35095 ft 462 kts 118°
2026-05-04 12:21 45.76587 17.50756 35095 ft 462 kts 118°
2026-05-04 12:22 45.73413 17.58761 35099 ft 462 kts 118°
2026-05-04 12:22 45.70238 17.66755 35100 ft 462 kts 118°
2026-05-04 12:23 45.67053 17.74744 35103 ft 462 kts 118°
2026-05-04 12:23 45.64402 17.81379 35108 ft 462 kts 118°
2026-05-04 12:24 45.61196 17.89358 35110 ft 462 kts 118°
2026-05-04 12:24 45.57993 17.97319 35107 ft 462 kts 118°
2026-05-04 12:25 45.54787 18.05269 35112 ft 462 kts 118°
2026-05-04 12:25 45.51579 18.13217 35109 ft 462 kts 118°
2026-05-04 12:26 45.48363 18.21156 35110 ft 462 kts 118°
2026-05-04 12:26 45.45139 18.29089 35111 ft 462 kts 118°
2026-05-04 12:27 45.41915 18.37011 35111 ft 462 kts 118°
2026-05-04 12:27 45.38682 18.44924 35114 ft 463 kts 118°
2026-05-04 12:28 45.35439 18.52829 35111 ft 463 kts 118°
2026-05-04 12:28 45.32191 18.60733 35113 ft 463 kts 118°
2026-05-04 12:29 45.28929 18.68641 35116 ft 463 kts 118°
2026-05-04 12:29 45.25665 18.76523 35113 ft 464 kts 118°
2026-05-04 12:30 45.22395 18.84410 35114 ft 464 kts 118°
2026-05-04 12:30 45.19120 18.92288 35117 ft 464 kts 118°
2026-05-04 12:31 45.15868 19.00090 35121 ft 464 kts 118°
2026-05-04 12:31 45.12487 19.07974 35120 ft 466 kts 124°
2026-05-04 12:32 45.06366 19.18695 35121 ft 467 kts 127°
2026-05-04 12:33 45.02266 19.25830 35117 ft 467 kts 127°
2026-05-04 12:33 44.98166 19.32957 35122 ft 467 kts 127°
2026-05-04 12:34 44.94089 19.40002 35128 ft 467 kts 127°
2026-05-04 12:34 44.89962 19.47119 35118 ft 468 kts 127°
2026-05-04 12:35 44.85842 19.54209 35123 ft 467 kts 127°
2026-05-04 12:35 44.81713 19.61292 35122 ft 468 kts 127°
2026-05-04 12:36 44.77574 19.68372 35128 ft 468 kts 127°
2026-05-04 12:36 44.73433 19.75446 35130 ft 468 kts 127°
2026-05-04 12:37 44.69293 19.82495 35124 ft 468 kts 127°
2026-05-04 12:37 44.65140 19.89539 35128 ft 468 kts 127°
2026-05-04 12:38 44.60712 19.97047 35130 ft 467 kts 127°
2026-05-04 12:38 44.57259 20.02895 35132 ft 467 kts 127°
2026-05-04 12:39 44.53103 20.09911 35131 ft 467 kts 127°
2026-05-04 12:39 44.48948 20.16895 35134 ft 468 kts 127°
2026-05-04 12:40 44.44765 20.23900 35139 ft 468 kts 127°
2026-05-04 12:40 44.40596 20.30880 35137 ft 468 kts 127°
2026-05-04 12:41 44.36419 20.37875 35139 ft 468 kts 127°
2026-05-04 12:41 44.32227 20.44861 35142 ft 469 kts 127°
2026-05-04 12:42 44.28034 20.51821 35141 ft 469 kts 127°
2026-05-04 12:42 44.23828 20.58796 35146 ft 469 kts 127°
2026-05-04 12:43 44.19616 20.65753 35142 ft 470 kts 127°
2026-05-04 12:43 44.15400 20.72706 35145 ft 470 kts 127°
2026-05-04 12:44 44.11257 20.79755 35144 ft 469 kts 124°
2026-05-04 12:44 44.07331 20.86984 35142 ft 468 kts 123°
2026-05-04 12:45 44.03435 20.94230 35139 ft 468 kts 123°
2026-05-04 12:45 43.99471 21.01411 35136 ft 468 kts 124°
2026-05-04 12:46 43.95478 21.08555 35138 ft 468 kts 124°
2026-05-04 12:46 43.91481 21.15693 35140 ft 468 kts 124°
2026-05-04 12:47 43.87525 21.22770 35138 ft 467 kts 124°
2026-05-04 12:47 43.83544 21.29876 35137 ft 466 kts 124°
2026-05-04 12:48 43.79569 21.36972 35133 ft 466 kts 124°
2026-05-04 12:48 43.75578 21.44061 34879 ft 468 kts 124°
2026-05-04 12:48 43.73575 21.47610 34638 ft 468 kts 124°
2026-05-04 12:49 43.71570 21.51158 34403 ft 468 kts 124°
2026-05-04 12:49 43.69565 21.54706 34169 ft 468 kts 124°
2026-05-04 12:49 43.67558 21.58248 33905 ft 468 kts 124°
2026-05-04 12:49 43.65551 21.61786 33634 ft 468 kts 124°
2026-05-04 12:50 43.63542 21.65324 33366 ft 468 kts 124°
2026-05-04 12:50 43.61532 21.68862 33099 ft 468 kts 124°
2026-05-04 12:50 43.59521 21.72398 32833 ft 468 kts 124°
2026-05-04 12:50 43.57509 21.75929 32584 ft 468 kts 124°
2026-05-04 12:51 43.55498 21.79454 32330 ft 468 kts 124°
2026-05-04 12:51 43.53484 21.82978 32072 ft 468 kts 124°
2026-05-04 12:51 43.51468 21.86503 31824 ft 467 kts 124°
2026-05-04 12:51 43.49461 21.90011 31575 ft 467 kts 124°
2026-05-04 12:52 43.47454 21.93519 30792 ft 468 kts 125°
2026-05-04 12:52 43.45425 21.97061 29476 ft 474 kts 126°
2026-05-04 12:52 43.43373 22.00633 28291 ft 475 kts 126°
2026-05-04 12:52 43.41328 22.04187 27421 ft 469 kts 127°
2026-05-04 12:53 43.39350 22.07618 26772 ft 461 kts 127°
2026-05-04 12:53 43.37376 22.11042 26037 ft 455 kts 127°
2026-05-04 12:53 43.35422 22.14428 25326 ft 448 kts 127°
2026-05-04 12:53 43.33495 22.17766 24639 ft 443 kts 128°
2026-05-04 12:54 43.31587 22.21066 23947 ft 438 kts 128°
2026-05-04 12:54 43.29704 22.24316 23208 ft 428 kts 128°
2026-05-04 12:54 43.27892 22.27431 22591 ft 408 kts 128°
2026-05-04 12:54 43.26350 22.30079 22074 ft 393 kts 127°
2026-05-04 12:55 43.24670 22.32963 21537 ft 386 kts 127°
2026-05-04 12:55 43.23001 22.35829 20994 ft 384 kts 127°
2026-05-04 12:55 43.21339 22.38690 20483 ft 383 kts 127°
2026-05-04 12:55 43.19685 22.41540 19979 ft 381 kts 127°
2026-05-04 12:56 43.18036 22.44373 19497 ft 379 kts 127°
2026-05-04 12:56 43.16395 22.47183 19011 ft 377 kts 126°
2026-05-04 12:56 43.14764 22.49973 18558 ft 375 kts 126°
2026-05-04 12:56 43.13130 22.52769 18054 ft 374 kts 126°
2026-05-04 12:57 43.11513 22.55533 17584 ft 371 kts 126°
2026-05-04 12:57 43.09907 22.58272 17095 ft 368 kts 126°
2026-05-04 12:57 43.08303 22.61010 16516 ft 369 kts 126°
2026-05-04 12:57 43.06701 22.63742 16036 ft 367 kts 126°
2026-05-04 12:58 43.05109 22.66454 15557 ft 365 kts 126°
2026-05-04 12:58 43.03523 22.69154 15063 ft 363 kts 126°
2026-05-04 12:58 43.01944 22.71839 14549 ft 363 kts 126°
2026-05-04 12:58 43.00360 22.74528 14034 ft 363 kts 125°
2026-05-04 12:59 42.98777 22.77208 13464 ft 362 kts 126°
2026-05-04 12:59 42.97156 22.79818 13061 ft 358 kts 133°
2026-05-04 12:59 42.95235 22.81920 12772 ft 350 kts 140°
2026-05-04 12:59 42.93320 22.83880 12305 ft 337 kts 140°
2026-05-04 13:00 42.91511 22.85715 12164 ft 313 kts 140°
2026-05-04 13:00 42.89808 22.87438 11784 ft 300 kts 140°
2026-05-04 13:00 42.88123 22.89151 10982 ft 304 kts 140°
2026-05-04 13:00 42.86418 22.90888 10184 ft 307 kts 140°
2026-05-04 13:01 42.84698 22.92636 9320 ft 309 kts 140°
2026-05-04 13:01 42.82963 22.94390 8480 ft 310 kts 140°
2026-05-04 13:01 42.81232 22.96138 7648 ft 310 kts 140°
2026-05-04 13:01 42.79502 22.97886 6838 ft 310 kts 139°
2026-05-04 13:02 42.77804 22.99594 6463 ft 295 kts 140°
2026-05-04 13:02 42.76204 23.01193 6324 ft 279 kts 140°
2026-05-04 13:02 42.74652 23.02749 6204 ft 276 kts 139°
2026-05-04 13:02 42.73186 23.04354 6071 ft 272 kts 129°
2026-05-04 13:03 42.72119 23.06398 5962 ft 256 kts 111°
2026-05-04 13:03 42.71600 23.08553 5973 ft 225 kts 95°
2026-05-04 13:03 42.71455 23.10590 5904 ft 210 kts 90°
2026-05-04 13:03 42.71346 23.12540 5681 ft 204 kts 89°
2026-05-04 13:04 42.71239 23.14443 5442 ft 201 kts 90°
2026-05-04 13:04 42.71131 23.16340 5203 ft 202 kts 90°
2026-05-04 13:04 42.71022 23.18246 4915 ft 202 kts 91°
2026-05-04 13:04 42.70914 23.20108 4633 ft 191 kts 90°
2026-05-04 13:05 42.70812 23.21853 4379 ft 179 kts 90°
2026-05-04 13:05 42.70718 23.23457 4191 ft 162 kts 90°
2026-05-04 13:05 42.70631 23.24946 3955 ft 153 kts 89°
2026-05-04 13:05 42.70550 23.26336 3764 ft 144 kts 90°
2026-05-04 13:06 42.70473 23.27672 3567 ft 141 kts 91°
2026-05-04 13:06 42.70396 23.29001 3382 ft 140 kts 90°
2026-05-04 13:06 42.70319 23.30323 3176 ft 141 kts 91°
2026-05-04 13:06 42.70241 23.31665 2961 ft 141 kts 92°
2026-05-04 13:07 42.70163 23.32986 2784 ft 141 kts 94°
2026-05-04 13:07 42.70085 23.34313 2585 ft 139 kts 92°
2026-05-04 13:07 42.70007 23.35628 2405 ft 141 kts 95°
2026-05-04 13:07 42.69929 23.36943 2223 ft 139 kts 93°
2026-05-04 13:08 42.69850 23.38250 2065 ft 139 kts 94°
2026-05-04 13:08 42.69779 23.39556 1828 ft 136 kts 94°
2026-05-04 13:08 42.69702 23.40790 1748 ft 116 kts 94°
2026-05-04 13:08 42.69654 23.41637 1751 ft 65 kts 95°
2026-05-04 13:09 42.69630 23.42028 1750 ft 27 kts 94°
2026-05-04 13:09 42.69613 23.42273 1750 ft 26 kts 94°
2026-05-04 13:09 42.69583 23.42509 1750 ft 25 kts 109°
2026-05-04 13:09 42.69506 23.42698 1748 ft 14 kts 125°
2026-05-04 13:10 42.69424 23.42746 1752 ft 15 kts 210°
2026-05-04 13:10 42.69405 23.42625 1751 ft 13 kts 275°
2026-05-04 13:10 42.69412 23.42508 1748 ft 13 kts 274°
2026-05-04 13:10 42.69420 23.42381 1749 ft 14 kts 275°
2026-05-04 13:11 42.69431 23.42201 1751 ft 19 kts 275°
2026-05-04 13:11 42.69441 23.42028 1751 ft 18 kts 274°
2026-05-04 13:11 42.69451 23.41866 1743 ft 16 kts 275°
2026-05-04 13:11 42.69460 23.41710 1750 ft 18 kts 275°
2026-05-04 13:12 42.69470 23.41547 1750 ft 16 kts 275°
2026-05-04 13:12 42.69479 23.41400 1743 ft 15 kts 275°
2026-05-04 13:12 42.69484 23.41268 1744 ft 13 kts 262°
2026-05-04 13:12 42.69421 23.41204 1750 ft 11 kts 192°
2026-05-04 13:13 42.69342 23.41180 1741 ft 14 kts 192°
2026-05-04 13:13 42.69255 23.41155 1750 ft 12 kts 192°
2026-05-04 13:13 42.69180 23.41133 1750 ft 10 kts 192°
2026-05-04 13:13 42.69127 23.41087 1745 ft 9 kts 241°
2026-05-04 13:14 42.69103 23.40988 1743 ft 12 kts 253°
2026-05-04 13:14 42.69080 23.40889 1748 ft 10 kts 252°
2026-05-04 13:14 42.69051 23.40815 1747 ft 7 kts 197°
2026-05-04 13:14 42.69010 23.40835 1745 ft 5 kts 162°
2026-05-04 13:15 42.68986 23.40846 1747 ft 0 kts 162°
2026-05-04 13:17 42.68983 23.40713 1751 ft 0 kts 102°
2026-05-04 13:18 42.69110 23.40798 1751 ft 0 kts 169°
2026-05-04 13:18 42.68969 23.40856 1747 ft 0 kts 163°